EW4496 Weather Reports


time (UTC)temp
F
wind
direction
speed
knots
gust
knots
rain 1hr
in
rain 24hr
in
rain mn
in
humidity
%
barometer
mb
20260504204545 60 302 0.0 0.9 0.00 0.00 0.00 76 1014.5
20260504203157 60 209 0.0 0.0 0.00 0.00 0.00 75 1014.5
20260504201539 60 271 0.0 0.9 0.00 0.00 0.00 76 1014.6
20260504200039 59 278 0.0 1.7 0.00 0.00 0.00 76 1014.6
20260504194510 59 205 0.0 0.0 0.00 0.00 0.00 76 1014.8
20260504193053 59 309 0.0 0.0 0.00 0.00 0.00 78 1014.6
20260504191556 59 205 0.0 0.9 0.00 0.00 0.00 76 1014.8
20260504190049 59 246 0.0 0.0 0.00 0.00 0.00 74 1014.8
20260504184551 59 252 0.0 2.6 0.00 0.00 0.00 75 1014.9
20260504183049 59 236 0.0 4.3 0.00 0.00 0.00 74 1014.9
20260504181549 60 222 0.0 0.9 0.00 0.00 0.00 76 1015.0
20260504180049 59 297 0.0 3.5 0.00 0.00 0.00 77 1014.9
20260504174604 58 236 0.0 2.6 0.00 0.00 0.00 78 1014.7
20260504173103 58 251 0.0 0.9 0.00 0.00 0.00 77 1014.6
20260504171606 58 245 0.0 3.5 0.00 0.00 0.00 77 1014.6
20260504160111 57 217 0.0 2.6 0.00 0.00 0.00 81 1014.5
20260504120105 53 159 0.0 0.9 0.00 0.00 0.00 89 1013.5
20260504100112 53 232 0.0 0.0 0.00 0.00 0.00 88 1013.3
20260504081500 54 184 0.0 1.7 0.00 0.00 0.00 85 1013.5
20260504070115 54 201 0.0 0.0 0.00 0.00 0.00 84 1013.4
20260504044541 57 300 0.0 7.0 0.00 0.00 0.00 76 1012.6
20260504043030 58 272 0.0 4.3 0.00 0.00 0.00 76 1012.4
20260504041530 58 299 0.0 4.3 0.00 0.00 0.00 75 1012.4
20260504040036 59 275 0.9 4.3 0.00 0.00 0.00 74 1012.2
20260504034530 59 358 0.0 4.3 0.00 0.00 0.00 74 1012.1
20260504033030 59 337 0.0 5.2 0.00 0.00 0.00 72 1011.9
20260504031531 60 307 0.9 6.1 0.00 0.00 0.00 69 1011.7
20260504030029 62 334 0.9 7.8 0.00 0.00 0.00 66 1011.7
20260504024530 63 277 0.9 11.3 0.00 0.00 0.00 64 1011.4
20260504023103 64 226 2.6 9.6 0.00 0.00 0.00 61 1011.3
20260504021559 65 340 2.6 13.0 0.00 0.00 0.00 59 1011.2
20260504020114 66 323 2.6 8.7 0.00 0.00 0.00 57 1010.9
20260504014614 66 330 1.7 9.6 0.00 0.00 0.00 57 1010.9
20260504013114 68 338 1.7 7.0 0.00 0.00 0.00 55 1010.8
20260504011614 67 295 2.6 10.4 0.00 0.00 0.00 56 1010.7
20260504010114 68 300 3.5 10.4 0.00 0.00 0.00 54 1010.8
20260504004614 68 313 1.7 8.7 0.00 0.00 0.00 54 1010.7
20260504003116 68 4 0.0 8.7 0.00 0.00 0.00 55 1010.7
20260504001614 68 307 0.9 8.7 0.00 0.00 0.00 53 1010.6
20260504000016 69 338 0.9 7.0 0.00 0.00 0.00 53 1010.7
20260503234531 69 288 0.9 7.0 0.00 0.00 0.00 53 1010.8
20260503233035 69 307 0.9 6.1 0.00 0.00 0.00 53 1010.9
20260503231529 68 245 0.9 5.2 0.00 0.00 0.00 54 1011.0
20260503230029 68 335 0.0 5.2 0.00 0.00 0.00 55 1010.8
20260503224543 68 328 0.9 6.1 0.00 0.00 0.00 57 1010.7
20260503223043 68 318 0.9 4.3 0.00 0.00 0.00 57 1010.9
20260503221546 68 298 0.9 5.2 0.00 0.00 0.00 57 1011.0
20260503220043 68 333 0.0 7.0 0.00 0.00 0.00 58 1011.0
20260503214603 67 245 0.0 6.1 0.00 0.00 0.00 58 1011.3
20260503213059 67 304 0.0 7.8 0.00 0.00 0.00 58 1011.2
20260503211600 68 285 2.6 8.7 0.00 0.00 0.00 57 1011.2
20260503210100 68 339 0.9 9.6 0.00 0.00 0.00 57 1011.3